Tracking 35331 objects as of 14-Sep-2026
HD Live streaming from Space Station
objects crossing your sky now

DELTA 2 R/B(1)


DELTA 2 R/B(1) is no longer on orbit


NORAD ID: 28191
Int'l Code: 2004-009B
Launch date: March 20, 2004
Source: United States (US)
Launch site: AIR FORCE EASTERN TEST RANGE (AFETR)
Decay date: 2004-09-22

Note: This is a ROCKET BODY
Your satellite tracking list
Your tracking list is empty




NASA's NSSDC Master Catalog

Two Line Element Set (TLE):
1 28191U 04009B   04266.20761684  .48474907 -55648-5  29427-3 0  9990
2 28191 030.2401 086.1787 0029699 191.6249 168.8112 16.51399899 28240
Source of the keplerian elements: AFSPC